This is the latest recevied weather packets stored in our database for station/object KB9PMA-1. If no packets are shown the sender has not sent any weather packets the latest 10 day(s).
| Time | Temp. | Humidity | Pressure | Rain* | Wind** | Luminosity | Snow |
|---|---|---|---|---|---|---|---|
| 1777323198 | 16.67° C | 93% | 1016 hPa | 9.91 mm | - | - | - |
| 1777322898 | 16.67° C | 93% | 1016 hPa | 9.91 mm | - | - | - |
| 1777322598 | 17.22° C | 92% | 1016.4 hPa | 9.14 mm | - | - | - |
| 1777322298 | 17.22° C | 92% | 1016.2 hPa | 7.87 mm | - | - | - |
| 1777321998 | 17.22° C | 91% | 1015.9 hPa | 6.86 mm | - | - | - |
| 1777321698 | 17.22° C | 91% | 1015.4 hPa | 6.35 mm | - | - | - |
| 1777321398 | 17.22° C | 90% | 1015.3 hPa | 6.1 mm | - | - | - |
| 1777321098 | 17.22° C | 91% | 1015.4 hPa | 5.59 mm | - | - | - |
| 1777320798 | 17.22° C | 90% | 1015.5 hPa | 5.08 mm | - | - | - |
| 1777320498 | 17.22° C | 90% | 1015.4 hPa | 4.57 mm | - | - | - |
| 1777320198 | 17.22° C | 89% | 1015.4 hPa | 3.81 mm | - | - | - |
| 1777319898 | 17.22° C | 88% | 1015.4 hPa | 3.05 mm | - | - | - |
| 1777319598 | 17.78° C | 87% | 1015.2 hPa | 2.54 mm | - | - | - |
| 1777319298 | 17.78° C | 86% | 1015.1 hPa | 1.78 mm | - | - | - |
| 1777318998 | 18.33° C | 84% | 1014.9 hPa | 1.27 mm | - | - | - |
| 1777318698 | 18.33° C | 82% | 1014.5 hPa | 0.76 mm | - | - | - |
| 1777318398 | 18.89° C | 81% | 1014.2 hPa | 0.51 mm | - | - | - |
| 1777318098 | 19.44° C | 78% | 1013.7 hPa | 0.25 mm | - | - | - |
| 1777317798 | 19.44° C | 76% | 1013.2 hPa | 0.25 mm | - | - | - |
| 1777317498 | 20° C | 74% | 1013.1 hPa | 0 mm | - | - | - |
| 1777317198 | 20° C | 71% | 1012.9 hPa | 0 mm | - | - | - |
| 1777316898 | 20° C | 69% | 1012.9 hPa | 0 mm | - | - | - |
| 1777316598 | 20.56° C | 67% | 1012.8 hPa | 0 mm | - | - | - |
| 1777316298 | 20.56° C | 66% | 1012.7 hPa | 0 mm | - | - | - |
| 1777315998 | 20.56° C | 67% | 1012.9 hPa | 0 mm | - | - | - |
* Rain latest hour (hover to see other rain measurements)
** Current wind speed in m/s (hover to see current wind gust speed)